Regional Weather Roundup
Issued by NWS State College, PA

Home | Current Version | Previous Version | Text Only | Print | Product List | Glossary On
Versions: 1 2 3 4 5 6 7 8 9 10 11 12 13 14 15 16 17 18 19 20 21 22 23 24 25 26 27 28 29 30 31 32 33 34 35 36 37 38 39 40 41 42 43 44 45 46 47 48 49 50
203
ASUS41 KCTP 262210
RWRCTP

REGIONAL WEATHER ROUNDUP
NATIONAL WEATHER SERVICE STATE COLLEGE PA
600 PM EDT MON JUN 26 2017

Note: "fair" indicates few or no clouds below 12,000 feet with no
significant weather and/or obstructions to visibility.

* = STATION THAT DOES NOT REPORT PRECIPITATION /E.G. RAIN...SNOW...ETC/
    THUNDER OR FOG.

PAZ002>004-007>009-013>016-020>023-029>032-262300-
WESTERN PENNSYLVANIA

CITY           SKY/WX    TMP DP  RH WIND       PRES   REMARKS
ERIE           SUNNY     69  49  48 W17G28    29.99S
MEADVILLE      MOSUNNY   67  47  48 W10G17    30.01F
FRANKLIN*      PTSUNNY   61  54  77 W6        30.03F
NEW CASTLE     MOCLDY    63  56  78 SW5       30.03S
BEAVER COUNTY  MOSUNNY   70  50  49 SW9G21    30.03S
BUTLER*        CLOUDY    70  48  46 SW9G16    30.02F
PITTSBURGH INT CLOUDY    71  49  45 SW13      30.03S
PITTSBURGH     PTSUNNY   69  46  43 W13G25    30.02F
INDIANA*       PTSUNNY   70  48  46 W9G18     30.03F
LATROBE        PTSUNNY   70  46  43 W12G21    30.03S
WASHINGTON CO* MOSUNNY   68  46  45 W13G21    30.07S
$$

PAZ004>006-010>012-017>019-024>028-033>037-041-042-045-046-049>053-262300-
CENTRAL PENNSYLVANIA

CITY           SKY/WX    TMP DP  RH WIND       PRES   REMARKS
BRADFORD       CLOUDY    58  52  80 W9        30.02F
DUBOIS         CLOUDY    62  49  62 NW8       30.01R THUNDER HAZE
CLEARFIELD     PTSUNNY   70  45  40 SW10G23   29.99F
JOHNSTOWN      CLOUDY    65  48  54 W8        30.05R
ALTOONA        PTSUNNY   71  48  43 SW14      30.01F
STATE COLLEGE  MOSUNNY   72  48  43 SW12      29.99F
WILLIAMSPORT   PTSUNNY  N/A N/A N/A MISG      29.94F
SELINSGROVE    MOSUNNY   76  47  35 SW6       29.97F
FT INDIANTOWN  SUNNY     77  46  32 W8        29.98F
CAPITAL CITY   MOSUNNY   79  45  29 SW13      29.98F
HARRISBURG     MOSUNNY   78  49  35 VRB6      29.97F
YORK           SUNNY     77  50  38 W8        29.99F
$$

PAZ038>040-043-044-047-048-054-055-060>062-067>071-262300-
EASTERN PENNSYLVANIA

CITY           SKY/WX    TMP DP  RH WIND       PRES   REMARKS
SCRANTON       PTSUNNY   76  47  35 SW12G20   29.97F
MOUNT POCONO   MOSUNNY   69  45  41 SW15G23   30.02F
ALLENTOWN      MOSUNNY   78  48  34 SW16      29.98F
QUAKERTOWN*    PTCLDY    75  48  38 SW6       30.01F
READING        MOSUNNY   78  48  34 SW8       29.98F
LANCASTER      MOSUNNY   78  49  35 W13       29.99F
COATESVILLE    PTCLDY    75  48  38 VRB3      30.03F
POTTSTOWN      MOSUNNY   77  47  34 SW8G17    30.01F
BLUE BELL      SUNNY     77  46  33 W6        30.01F
DOYLESTOWN     MOSUNNY   76  46  34 SW8       30.00S
WILLOW GROVE   NOT AVBL
NORTH PHILA    MOSUNNY   80  47  31 W14       30.01S
PHILADELPHIA   MOSUNNY   80  45  28 W10       30.00F
$$




USA.gov is the U.S. government's official web portal to all federal, state and local government web resources and services.